Weather History for KCKB - April, 2013

Change the Weather History Date:

Sunday, April 28, 2013

  Actual Average Record
Temperature  
Mean Temperature 59 °F -  
Max Temperature 64 °F 68 °F 92 °F (1957)
Min Temperature 54 °F 39 °F 21 °F (1934)
Degree Days  
Heating Degree Days 6    
Growing Degree Days 9 (Base 50)    
Moisture  
Dew Point 46 °F    
Average Humidity 64    
Maximum Humidity 90    
Minimum Humidity 46    
Precipitation  
Precipitation 0.24 in - - ()
Sea Level Pressure  
Sea Level Pressure 30.02 in    
Wind  
Wind Speed 6 mph (SE)    
Max Wind Speed 17 mph    
Max Gust Speed 28 mph    
Visibility 9 miles    
Events Rain    
Averages and records for this station are not official NWS values.
T = Trace of Precipitation, MM = Missing Value Source: NWS Daily Summary

Daily Weather History Graph

Daily Weather History Graph

Search for Another Location

Airport or City:

Trip Planner

Search our weather history database for the weather conditions in past years. The results will help you decide how hot, cold, wet, or windy it might be!

Date:

Astronomy

Apr. 28, 2013 Rise Set
Actual Time 6:25 AM EDT 8:11 PM EDT
Civil Twilight 5:57 AM EDT 8:40 PM EDT
Nautical Twilight 5:22 AM EDT 9:15 PM EDT
Astronomical Twilight 4:45 AM EDT 9:52 PM EDT
Moon 11:39 PM EDT (4/28) 8:41 AM EDT (4/28)
Length of Visible Light 14h 43m
Length of Day
13h 45m
Waning Gibbous, 89% of the Moon is Illuminated
Apr 28
Waning Gibbous
May 2
Last Quarter
May 9
New
May 18
First Quarter
May 25
Full

Hourly Weather History & Observations

Time (EDT) Temp. Dew Point Humidity Pressure Visibility Wind Dir Wind Speed Gust Speed Precip Events Conditions
12:53 AM 60.1 °F 39.0 °F 46% 30.15 in 10.0 mi SSE 3.5 mph - N/A   Clear
1:53 AM 60.1 °F 39.9 °F 47% 30.12 in 10.0 mi SE 4.6 mph - N/A   Clear
2:53 AM 60.1 °F 41.0 °F 49% 30.09 in 10.0 mi ESE 4.6 mph - N/A   Mostly Cloudy
3:53 AM 60.1 °F 41.0 °F 49% 30.08 in 10.0 mi SE 5.8 mph - N/A   Scattered Clouds
4:53 AM 59.0 °F 41.0 °F 51% 30.07 in 10.0 mi ESE 5.8 mph - N/A   Mostly Cloudy
5:53 AM 59.0 °F 39.9 °F 49% 30.06 in 10.0 mi ESE 5.8 mph - N/A   Mostly Cloudy
6:53 AM 59.0 °F 41.0 °F 51% 30.05 in 10.0 mi SSE 4.6 mph - N/A   Overcast
7:53 AM 59.0 °F 44.1 °F 58% 30.06 in 9.0 mi South 11.5 mph - 0.00 in Rain Light Rain
8:53 AM 55.0 °F 50.0 °F 83% 30.08 in 5.0 mi SSE 5.8 mph - 0.03 in Rain Light Rain
9:53 AM 54.0 °F 51.1 °F 90% 30.08 in 4.0 mi SSE 5.8 mph - 0.10 in Rain Light Rain
10:53 AM 54.0 °F 51.1 °F 90% 30.07 in 5.0 mi ESE 5.8 mph - 0.08 in Rain Light Rain
11:53 AM 55.9 °F 51.1 °F 84% 30.05 in 10.0 mi SE 8.1 mph - 0.01 in Rain Light Rain
12:53 PM 57.9 °F 51.1 °F 78% 30.03 in 10.0 mi SE 5.8 mph - 0.01 in   Mostly Cloudy
1:53 PM 61.0 °F 50.0 °F 67% 30.01 in 10.0 mi SE 9.2 mph - N/A   Mostly Cloudy
2:53 PM 63.0 °F 48.0 °F 58% 29.99 in 10.0 mi South 10.4 mph - N/A   Overcast
3:53 PM 64.0 °F 46.9 °F 54% 29.96 in 10.0 mi SE 8.1 mph 18.4 mph N/A   Overcast
4:53 PM 63.0 °F 46.9 °F 56% 29.94 in 10.0 mi SE 15.0 mph 24.2 mph N/A   Scattered Clouds
5:53 PM 63.0 °F 46.9 °F 56% 29.94 in 10.0 mi SE 17.3 mph 27.6 mph N/A   Mostly Cloudy
6:53 PM 61.0 °F 48.0 °F 62% 29.94 in 10.0 mi SSE 13.8 mph 21.9 mph N/A   Clear
7:53 PM 59.0 °F 46.9 °F 64% 29.95 in 10.0 mi SE 9.2 mph - N/A   Overcast
8:53 PM 59.0 °F 46.9 °F 64% 29.96 in 10.0 mi South 6.9 mph - N/A   Overcast
9:53 PM 55.0 °F 50.0 °F 83% 29.98 in 9.0 mi SE 4.6 mph - 0.01 in Rain Light Rain
10:53 PM 55.9 °F 48.0 °F 75% 29.97 in 10.0 mi ESE 5.8 mph - 0.00 in   Partly Cloudy
11:53 PM 55.0 °F 48.0 °F 77% 29.96 in 10.0 mi SE 3.5 mph - N/A   Overcast